Weather History for Quincy Muni, Quincy, FL, FL

Change the Weather History Date:

Friday, July 4, 2014

  Actual Average (KTLH) Record (KTLH)
Temperature  
Mean Temperature 82 °F 82 °F  
Max Temperature 96 °F 92 °F 103 °F (1931)
Min Temperature 68 °F 72 °F 60 °F (1916)
Degree Days  
Heating Degree Days 0    
Month to date heating degree days  
Since 1 June heating degree days  
Since 1 July heating degree days  
Cooling Degree Days 17    
Month to date cooling degree days  
Year to date cooling degree days  
Since 1 June cooling degree days  
Growing Degree Days 32 (Base 50)    
Moisture  
Dew Point 63 °F    
Average Humidity 63    
Maximum Humidity 100    
Minimum Humidity 23    
Precipitation  
Precipitation 0.00 in 0.24 in 2.42 in (1939)
Month to date precipitation 0.93  
Year to date precipitation 30.32  
Sea Level Pressure  
Sea Level Pressure 30.10 in    
Wind  
Wind Speed 1 mph (NW)    
Max Wind Speed 9 mph    
Max Gust Speed 16 mph    
Visibility 10 miles    
Events      
T = Trace of Precipitation, MM = Missing Value Source: NWS Daily Summary

Daily Weather History Graph

Daily Weather History Graph

Search for Another Location

Airport:

Trip Planner

Search our weather history database for the weather conditions in past years. The results will help you decide how hot, cold, wet, or windy it might be!

Date:

Astronomy

Jul. 04, 2014 Rise Set
Actual Time 6:40 AM EDT 8:44 PM EDT
Civil Twilight 6:13 AM EDT 9:12 PM EDT
Nautical Twilight 5:39 AM EDT 9:45 PM EDT
Astronomical Twilight 5:03 AM EDT 10:21 PM EDT
Moon 1:06 PM EDT (7/4) 12:33 AM EDT (7/4)
Length of Visible Light 14h 59m
Length of Day
14h 04m
Waxing Crescent, 42% of the Moon is Illuminated
Jul 4
Waxing Crescent
Jul 5
First Quarter
Jul 12
Full
Jul 18
Last Quarter
Jul 26
New

Hourly Weather History & Observations

Time (EDT) Temp. Heat Index Dew Point Humidity Pressure Visibility Wind Dir Wind Speed Gust Speed Precip Events Conditions
12:15 AM 75.2 °F - 71.6 °F 89% 30.07 in 10.0 mi Calm Calm - N/A   Unknown
12:35 AM 73.4 °F - 71.6 °F 94% 30.07 in 10.0 mi Calm Calm - N/A   Unknown
12:55 AM 73.4 °F - 71.6 °F 94% 30.07 in 10.0 mi Calm Calm - N/A   Unknown
1:15 AM 73.4 °F - 71.6 °F 94% 30.07 in 9.0 mi Calm Calm - N/A   Scattered Clouds
1:35 AM 73.4 °F - 71.6 °F 94% 30.07 in 10.0 mi Calm Calm - N/A   Unknown
1:55 AM 73.4 °F - 71.6 °F 94% 30.07 in 9.0 mi Calm Calm - N/A   Unknown
2:15 AM 73.4 °F - 71.6 °F 94% 30.07 in 9.0 mi Calm Calm - N/A   Unknown
2:35 AM 71.6 °F - 71.6 °F 100% 30.07 in 7.0 mi Calm Calm - N/A   Unknown
2:55 AM 71.6 °F - 71.6 °F 100% 30.07 in 8.0 mi Calm Calm - N/A   Mostly Cloudy
3:15 AM 71.6 °F - 69.8 °F 94% 30.07 in 8.0 mi Calm Calm - N/A   Mostly Cloudy
3:35 AM 71.6 °F - 69.8 °F 94% 30.07 in 8.0 mi Calm Calm - N/A   Overcast
3:55 AM 71.6 °F - 69.8 °F 94% 30.06 in 9.0 mi Calm Calm - N/A   Unknown
4:15 AM 69.8 °F - 68.0 °F 94% 30.07 in 10.0 mi Calm Calm - N/A   Unknown
4:55 AM 68.0 °F - 68.0 °F 100% 30.08 in 10.0 mi Calm Calm - N/A   Unknown
5:15 AM 68.0 °F - 68.0 °F 100% 30.08 in 10.0 mi NNW 3.5 mph - N/A   Scattered Clouds
5:35 AM 68.0 °F - 66.2 °F 94% 30.08 in 10.0 mi Calm Calm - N/A   Clear
5:55 AM 68.0 °F - 66.2 °F 94% 30.09 in 10.0 mi NNW 4.6 mph - N/A   Clear
6:15 AM 68.0 °F - 66.2 °F 94% 30.10 in 10.0 mi NNW 4.6 mph - N/A   Clear
6:35 AM 68.0 °F - 66.2 °F 94% 30.11 in 10.0 mi Calm Calm - N/A   Clear
6:55 AM 68.0 °F - 64.4 °F 88% 30.11 in 10.0 mi Calm Calm - N/A   Clear
7:35 AM 73.4 °F - 66.2 °F 78% 30.13 in 10.0 mi Calm Calm - N/A   Clear
7:55 AM 75.2 °F - 64.4 °F 69% 30.13 in 10.0 mi North 5.8 mph - N/A   Clear
8:35 AM 78.8 °F - 64.4 °F 61% 30.14 in 10.0 mi Calm Calm - N/A   Clear
8:55 AM 80.6 °F 82.3 °F 64.4 °F 58% 30.14 in 10.0 mi Calm Calm - N/A   Clear
9:15 AM 82.4 °F 83.9 °F 64.4 °F 54% 30.14 in 10.0 mi Calm Calm - N/A   Clear
9:35 AM 84.2 °F 85.0 °F 62.6 °F 48% 30.14 in 10.0 mi Calm Calm - N/A   Clear
9:55 AM 84.2 °F 85.0 °F 62.6 °F 48% 30.14 in 10.0 mi Calm Calm - N/A   Clear
10:35 AM 86.0 °F 86.1 °F 60.8 °F 43% 30.15 in 10.0 mi North 4.6 mph - N/A   Clear
10:55 AM 86.0 °F 85.4 °F 59.0 °F 40% 30.15 in 10.0 mi NNW 5.8 mph - N/A   Clear
11:55 AM 89.6 °F 88.9 °F 59.0 °F 36% 30.14 in 10.0 mi North 4.6 mph - N/A   Clear
12:15 PM 91.4 °F 90.7 °F 59.0 °F 34% 30.14 in 10.0 mi WNW 8.1 mph - N/A   Clear
12:35 PM 91.4 °F 90.7 °F 59.0 °F 34% 30.13 in 10.0 mi West 6.9 mph - N/A   Clear
12:55 PM 91.4 °F 90.7 °F 59.0 °F 34% 30.13 in 10.0 mi West 4.6 mph - N/A   Clear
1:15 PM 91.4 °F 90.7 °F 59.0 °F 34% 30.13 in 10.0 mi WNW 6.9 mph - N/A   Clear
1:35 PM 93.2 °F 92.6 °F 59.0 °F 32% 30.12 in 10.0 mi West 9.2 mph - N/A   Clear
1:55 PM 93.2 °F 91.9 °F 57.2 °F 30% 30.12 in 10.0 mi Calm Calm - N/A   Clear
2:35 PM 95.0 °F 93.0 °F 55.4 °F 26% 30.11 in 10.0 mi West 9.2 mph - N/A   Clear
2:55 PM 96.8 °F 94.4 °F 53.6 °F 23% 30.10 in 10.0 mi WSW 4.6 mph 16.1 mph N/A   Clear
3:15 PM 96.8 °F 95.1 °F 55.4 °F 25% 30.10 in 10.0 mi West 4.6 mph - N/A   Clear
3:35 PM 95.0 °F 93.7 °F 57.2 °F 28% 30.10 in 10.0 mi WNW 6.9 mph - N/A   Clear
3:55 PM 93.2 °F 91.9 °F 57.2 °F 30% 30.10 in 10.0 mi WNW 4.6 mph - N/A   Clear
4:15 PM 91.4 °F 89.9 °F 57.2 °F 31% 30.09 in 10.0 mi Calm Calm - N/A   Clear
4:55 PM 89.6 °F 88.1 °F 57.2 °F 33% 30.10 in 10.0 mi Calm Calm - N/A   Clear
5:35 PM 91.4 °F 90.7 °F 59.0 °F 34% 30.09 in 10.0 mi Calm Calm - N/A   Clear
5:55 PM 89.6 °F 88.9 °F 59.0 °F 36% 30.09 in 10.0 mi WNW 4.6 mph - N/A   Clear
6:15 PM 89.6 °F 88.9 °F 59.0 °F 36% 30.09 in 10.0 mi Calm Calm - N/A   Clear
6:35 PM 91.4 °F 90.7 °F 59.0 °F 34% 30.09 in 10.0 mi NW 3.5 mph - N/A   Clear
6:55 PM 93.2 °F 92.6 °F 59.0 °F 32% 30.09 in 10.0 mi West 5.8 mph - N/A   Clear
7:15 PM 91.4 °F 90.7 °F 59.0 °F 34% 30.09 in 10.0 mi Calm Calm - N/A   Clear
7:35 PM 89.6 °F 88.9 °F 59.0 °F 36% 30.09 in 10.0 mi Calm Calm - N/A   Clear
7:55 PM 89.6 °F 88.9 °F 59.0 °F 36% 30.09 in 10.0 mi Calm Calm - N/A   Clear
8:15 PM 84.2 °F 85.0 °F 62.6 °F 48% 30.10 in 10.0 mi Calm Calm - N/A   Clear
8:35 PM 80.6 °F 81.8 °F 62.6 °F 54% 30.10 in 10.0 mi Calm Calm - N/A   Clear
8:55 PM 77.0 °F - 62.6 °F 61% 30.10 in 10.0 mi Calm Calm - N/A   Unknown
9:15 PM 75.2 °F - 62.6 °F 65% 30.11 in 10.0 mi Calm Calm - N/A   Unknown
9:35 PM 73.4 °F - 62.6 °F 69% 30.11 in 10.0 mi Calm Calm - N/A   Unknown
9:55 PM 71.6 °F - 62.6 °F 73% 30.11 in 10.0 mi Calm Calm - N/A   Unknown
10:15 PM 71.6 °F - 64.4 °F 78% 30.12 in 10.0 mi Calm Calm - N/A   Unknown
10:35 PM 69.8 °F - 62.6 °F 78% 30.12 in 10.0 mi Calm Calm - N/A   Unknown
10:55 PM 68.0 °F - 62.6 °F 83% 30.12 in 10.0 mi Calm Calm - N/A   Unknown
11:15 PM 68.0 °F - 62.6 °F 83% 30.13 in 10.0 mi Calm Calm - N/A   Unknown
11:55 PM 68.0 °F - 62.6 °F 83% 30.13 in 10.0 mi Calm Calm - N/A   Unknown